| time (UTC) | temp F | wind direction | speed MPH | gust MPH | rain 1hr in | rain 24hr in | rain mn in | humidity % | barometer mb |
| 20260510174504 | 81 | 37 | 0.0 | 0.0 | 0.00 | 0.00 | 0.01 | 66 | 1012.8 |
| 20260510173003 | 81 | 250 | 0.0 | 0.0 | 0.00 | 0.00 | 0.01 | 65 | 1012.9 |
| 20260510171502 | 81 | 191 | 0.0 | 0.0 | 0.00 | 0.00 | 0.01 | 66 | 1013.0 |
| 20260510164603 | 79 | 69 | 0.0 | 0.0 | 0.00 | 0.00 | 0.01 | 66 | 1013.3 |
| 20260510163108 | 79 | 1 | 0.0 | 0.0 | 0.00 | 0.00 | 0.01 | 67 | 1013.1 |
| 20260510161554 | 78 | 109 | 0.0 | 0.0 | 0.00 | 0.00 | 0.01 | 65 | 1013.0 |
| 20260510160052 | 78 | 37 | 0.0 | 0.0 | 0.00 | 0.00 | 0.01 | 66 | 1013.0 |
| 20260510154551 | 77 | 23 | 0.0 | 0.0 | 0.00 | 0.00 | 0.01 | 65 | 1013.0 |
| 20260510153051 | 76 | 27 | 0.0 | 0.0 | 0.00 | 0.00 | 0.01 | 62 | 1013.1 |
| 20260510151544 | 75 | 14 | 0.0 | 0.0 | 0.00 | 0.00 | 0.01 | 58 | 1013.3 |
| 20260510150043 | 74 | 6 | 0.0 | 0.0 | 0.00 | 0.00 | 0.01 | 57 | 1013.4 |
| 20260510144538 | 72 | 44 | 0.0 | 0.0 | 0.00 | 0.00 | 0.01 | 36 | 1013.5 |
| 20260510143030 | 70 | 18 | 0.0 | 0.0 | 0.00 | 0.00 | 0.01 | 38 | 1013.5 |
| 20260510141528 | 69 | 53 | 0.0 | 0.0 | 0.00 | 0.00 | 0.01 | 38 | 1013.4 |
| 20260510140026 | 68 | 2 | 0.0 | 0.0 | 0.00 | 0.00 | 0.01 | 39 | 1013.2 |
| 20260510134526 | 67 | 18 | 0.0 | 0.0 | 0.00 | 0.00 | 0.01 | 39 | 1013.1 |
| 20260510133019 | 66 | 55 | 0.0 | 0.0 | 0.00 | 0.00 | 0.01 | 39 | 1013.0 |
| 20260510131515 | 66 | 1 | 0.0 | 0.0 | 0.00 | 0.00 | 0.01 | 39 | 1013.0 |
| 20260510130014 | 65 | 53 | 0.0 | 0.0 | 0.00 | 0.00 | 0.01 | 39 | 1012.6 |
| 20260510124511 | 64 | 32 | 0.0 | 0.0 | 0.00 | 0.00 | 0.01 | 39 | 1012.6 |
| 20260510123011 | 64 | 32 | 0.0 | 0.0 | 0.00 | 0.00 | 0.01 | 39 | 1012.5 |
| 20260510121512 | 63 | 32 | 0.0 | 0.0 | 0.00 | 0.00 | 0.01 | 39 | 1012.0 |
| 20260510120012 | 63 | 1 | 0.0 | 0.0 | 0.00 | 0.00 | 0.00 | 39 | 1011.7 |
| 20260510114510 | 63 | 69 | 0.0 | 0.0 | 0.00 | 0.00 | 0.00 | 39 | 1011.5 |
| 20260510113007 | 63 | 72 | 0.0 | 0.0 | 0.00 | 0.00 | 0.00 | 39 | 1011.0 |
| 20260510111508 | 63 | 82 | 0.0 | 0.0 | 0.00 | 0.00 | 0.00 | 39 | 1010.9 |
| 20260510110009 | 63 | 123 | 0.0 | 0.0 | 0.00 | 0.00 | 0.00 | 39 | 1010.6 |
| 20260510104505 | 63 | 82 | 0.0 | 0.0 | 0.00 | 0.00 | 0.00 | 39 | 1010.5 |
| 20260510103005 | 63 | 355 | 0.0 | 0.0 | 0.00 | 0.00 | 0.00 | 39 | 1010.3 |
| 20260510101505 | 63 | 355 | 0.0 | 0.0 | 0.00 | 0.00 | 0.00 | 39 | 1010.0 |
| 20260510100003 | 63 | 355 | 0.0 | 0.0 | 0.00 | 0.00 | 0.00 | 39 | 1009.9 |
| 20260510094501 | 63 | 355 | 0.0 | 0.0 | 0.00 | 0.00 | 0.00 | 39 | 1009.9 |
| 20260510093100 | 63 | 355 | 0.0 | 0.0 | 0.00 | 0.00 | 0.00 | 39 | 1009.9 |
| 20260510091601 | 63 | 355 | 0.0 | 0.0 | 0.00 | 0.00 | 0.00 | 39 | 1009.9 |
| 20260510090059 | 64 | 355 | 0.0 | 0.0 | 0.00 | 0.00 | 0.00 | 38 | 1009.8 |
| 20260510084610 | 64 | 26 | 0.0 | 0.0 | 0.00 | 0.00 | 0.00 | 38 | 1009.4 |
| 20260510083056 | 64 | 26 | 0.0 | 0.0 | 0.00 | 0.00 | 0.00 | 38 | 1009.3 |
| 20260510081559 | 64 | 26 | 0.0 | 0.0 | 0.00 | 0.00 | 0.00 | 38 | 1009.3 |
| 20260510080103 | 64 | 26 | 0.0 | 0.0 | 0.00 | 0.00 | 0.00 | 39 | 1009.3 |
| 20260510074555 | 65 | 26 | 0.0 | 0.0 | 0.00 | 0.00 | 0.00 | 38 | 1009.3 |
| 20260510073057 | 65 | 26 | 0.0 | 0.0 | 0.00 | 0.00 | 0.00 | 38 | 1009.1 |
| 20260510071551 | 65 | 26 | 0.0 | 0.0 | 0.00 | 0.00 | 0.00 | 38 | 1009.2 |
| 20260510064547 | 66 | 26 | 0.0 | 0.0 | 0.00 | 0.00 | 0.00 | 38 | 1009.4 |
| 20260510063041 | 65 | 70 | 0.0 | 0.0 | 0.00 | 0.00 | 0.00 | 38 | 1009.4 |
| 20260510061538 | 65 | 78 | 0.0 | 0.0 | 0.00 | 0.00 | 0.00 | 38 | 1009.6 |
| 20260510060040 | 65 | 78 | 0.0 | 0.0 | 0.00 | 0.00 | 0.00 | 38 | 1009.4 |
| 20260510054527 | 66 | 78 | 0.0 | 0.0 | 0.00 | 0.00 | 0.00 | 38 | 1009.8 |
| 20260510053023 | 66 | 78 | 0.0 | 0.0 | 0.00 | 0.00 | 0.00 | 38 | 1009.6 |
| 20260510051519 | 66 | 78 | 0.0 | 0.0 | 0.00 | 0.00 | 0.00 | 38 | 1009.4 |
| 20260510050015 | 66 | 96 | 0.0 | 0.0 | 0.00 | 0.00 | 0.00 | 38 | 1009.5 |
| 20260510044510 | 66 | 25 | 0.0 | 0.0 | 0.00 | 0.00 | 0.00 | 38 | 1009.6 |
| 20260510043007 | 66 | 24 | 0.0 | 0.0 | 0.00 | 0.00 | 0.00 | 38 | 1009.9 |
| 20260510041502 | 66 | 24 | 0.0 | 0.0 | 0.00 | 0.00 | 1.69 | 38 | 1010.0 |
| 20260510040002 | 66 | 24 | 0.0 | 0.0 | 0.00 | 0.00 | 1.69 | 38 | 1010.0 |
| 20260510034501 | 66 | 24 | 0.0 | 0.0 | 0.00 | 0.00 | 1.69 | 38 | 1010.4 |
| 20260510033000 | 66 | 63 | 0.0 | 0.0 | 0.00 | 0.00 | 1.69 | 38 | 1010.4 |
| 20260510031501 | 66 | 6 | 0.0 | 0.0 | 0.00 | 0.00 | 1.69 | 38 | 1010.5 |
| 20260510024600 | 66 | 307 | 0.0 | 0.0 | 0.00 | 0.00 | 1.69 | 38 | 1009.9 |
| 20260510023059 | 66 | 333 | 0.0 | 0.0 | 0.00 | 0.00 | 1.69 | 38 | 1008.9 |
| 20260510021646 | 66 | 52 | 0.0 | 0.0 | 0.00 | 0.00 | 1.69 | 38 | 1008.9 |
| 20260510014600 | 66 | 45 | 0.0 | 0.0 | 0.00 | 0.00 | 1.69 | 38 | 1009.3 |
| 20260510013111 | 66 | 45 | 0.0 | 0.0 | 0.00 | 0.00 | 1.69 | 38 | 1008.9 |
| 20260510011557 | 66 | 45 | 0.0 | 0.0 | 0.00 | 0.00 | 1.69 | 38 | 1008.9 |
| 20260510010100 | 67 | 45 | 0.0 | 0.0 | 0.00 | 0.00 | 1.69 | 38 | 1009.1 |
| 20260510004555 | 67 | 281 | 0.0 | 0.0 | 0.00 | 0.00 | 1.69 | 38 | 1008.9 |
| 20260510003057 | 67 | 281 | 0.0 | 0.0 | 0.00 | 0.00 | 1.69 | 38 | 1009.0 |
| 20260510001554 | 67 | 255 | 0.0 | 0.0 | 0.00 | 0.00 | 1.68 | 38 | 1009.0 |
| 20260510000054 | 67 | 317 | 0.0 | 0.0 | 0.00 | 0.00 | 1.68 | 38 | 1009.1 |
| 20260509234553 | 67 | 318 | 0.0 | 0.0 | 0.00 | 0.00 | 1.67 | 38 | 1008.9 |
| 20260509233053 | 67 | 318 | 0.0 | 0.0 | 0.00 | 0.00 | 1.67 | 38 | 1008.6 |
| 20260509231553 | 67 | 318 | 0.0 | 0.0 | 0.00 | 0.00 | 1.67 | 38 | 1008.3 |
| 20260509230053 | 67 | 275 | 0.0 | 0.0 | 0.00 | 0.00 | 1.66 | 38 | 1008.8 |
| 20260509224551 | 67 | 204 | 0.0 | 0.0 | 0.00 | 0.00 | 1.65 | 38 | 1009.0 |
| 20260509223053 | 67 | 200 | 0.0 | 0.0 | 0.00 | 0.00 | 1.65 | 38 | 1008.0 |
| 20260509221550 | 67 | 200 | 0.0 | 0.0 | 0.00 | 0.00 | 1.65 | 38 | 1008.3 |
| 20260509220051 | 67 | 254 | 0.0 | 0.0 | 0.00 | 0.00 | 1.65 | 38 | 1008.1 |
| 20260509214549 | 67 | 167 | 0.0 | 0.0 | 0.00 | 0.00 | 1.65 | 38 | 1006.8 |
| 20260509213103 | 67 | 101 | 0.0 | 0.0 | 0.00 | 0.00 | 1.64 | 38 | 1007.3 |
| 20260509211552 | 68 | 184 | 0.0 | 0.0 | 0.00 | 0.00 | 1.63 | 38 | 1008.3 |
| 20260509210050 | 68 | 254 | 0.0 | 0.0 | 0.00 | 0.00 | 1.62 | 38 | 1007.7 |
| 20260509204547 | 68 | 210 | 0.0 | 0.0 | 0.00 | 0.00 | 1.60 | 38 | 1007.9 |
| 20260509203046 | 68 | 202 | 0.0 | 0.0 | 0.00 | 0.00 | 1.58 | 38 | 1008.1 |
| 20260509201546 | 68 | 205 | 0.0 | 0.0 | 0.00 | 0.00 | 1.56 | 38 | 1008.3 |
| 20260509200052 | 68 | 110 | 0.0 | 0.0 | 0.00 | 0.00 | 1.54 | 38 | 1008.4 |
| 20260509194554 | 67 | 156 | 0.0 | 0.0 | 0.00 | 0.00 | 1.51 | 38 | 1008.5 |
| 20260509193046 | 67 | 288 | 0.0 | 0.0 | 0.00 | 0.00 | 1.50 | 38 | 1007.6 |
| 20260509191552 | 67 | 288 | 0.0 | 0.0 | 0.00 | 0.00 | 1.49 | 38 | 1007.4 |
| 20260509190047 | 66 | 142 | 0.0 | 0.0 | 0.00 | 0.00 | 1.47 | 38 | 1008.4 |
| 20260509184547 | 66 | 243 | 0.0 | 0.0 | 0.00 | 0.00 | 1.46 | 38 | 1008.4 |
| 20260509183047 | 66 | 218 | 0.0 | 0.0 | 0.00 | 0.00 | 1.46 | 38 | 1008.5 |
| 20260509181545 | 66 | 95 | 0.0 | 0.0 | 0.00 | 0.00 | 1.45 | 38 | 1008.7 |
| 20260509180053 | 66 | 205 | 0.0 | 0.0 | 0.00 | 0.00 | 1.43 | 38 | 1008.9 |